User: anonymous   Login
Location: Quebec
(46.8000°N, 71.2500°W)
Time: 06:34:22
(UTC-04:00)
Language:

CZ-4B R/B - Orbit

View from above orbital plane
View from above orbital plane
View from above satellite
View from above satellite

Ground track
Ground track

The orbit data is extracted from the following two-line orbital elements,

1 29093U 06015B   17174.89736649 +.00001721 +00000-0 +42872-4 0  9995
2 29093 097.4962 285.9629 0062402 294.2920 065.1816 15.39821931618469
Epoch (UTC): 23 June 2017 21:32:12
Eccentricity: 0.0062402
inclination: 97.4962°
perigee height: 404 km
apogee height: 489 km
right ascension of ascending node: 285.9629°
argument of perigee: 294.2920°
revolutions per day: 15.39821931
mean anomaly at epoch: 65.1816°
orbit number at epoch: 61846

The dashed part of the orbit path shows where the satellite is in the earth's shadow,  

DLR